Location: Saint Louis
(38.6272°N, 90.1978°W)
Time: 06:36:02
(UTC-05:00)

ISS - Pass Details

Date: 28 November 2013
Orbit: 402 x 404 km, 51.6° (Epoch: 29 May)

Event Time Altitude Azimuth Distance (km) Brightness Sun altitude
Exits shadow 03:31:55 - 66° (ENE) 2,394 1.4 -39.5°
Enters shadow 04:29:18 -65° 284° (WNW) 11,987 4.1 -28.3°
Maximum altitude 05:04:56 29° 30° (NNE) 807 -1.7 -21.5°
